SCP
0 0 0 0 0 0 0 0 0 0 0 0 0 0 0 0 0 0 0 0 0 0 0 0 0 0 0 0 0 0 0 0 0 0 0 0 0 0 0 0 0 0 0 0
0 0 0 0 0 0 0 0 0 0 0 0 0 0 0 0 0 0 0 0 0 0 0 0 0 0 0 0 0 0 0 0 0 0 0 0 0 0 0 0 0 0 0 0
0 0 0 0 0 0 0 0 0 0 0 0 0 0 0 0 0 0 0 0 0 0 0 0 0 0 0 0 0 0 -0 0 -0 0 0 0 -0 -0 -0 -0 -0 0 0 0
0 0 0 0 0 0 0 0 0 0 0 0 0 0 0 0 0 0 0 0 0 0 0 0 0 0 0 0 0 0 0 -0 -0 -0 -0 -0 -0 -0 -0 -0 0 0 0 0
0 0 0 0 0 0 0 0 0 0 0 0 0 0 0 0 0 0 0 0 0 0 0 0 0 0 0 0 0 0 0 0 0 -0 -0 -0 -0 -0 -0 -0 -0 -0 -0 -0
0 0 0 0 0 0 0 0 0 0 0 0 0 0 0 0 0 0 0 0 0 0 0 0 0 0 0 0 0 0 0 0 0 0 0 0 0 0 0 0 0 0 0 0
0 0 0 0 0 0 0 0 0 0 0 0 0 0 0 0 0 0 0 0 0 0 0 0 0 0 0 0 0 0 0 0 0 0 0 0 0 0 0 0 0 0 0 0
0 0 0 0 0 0 0 0 0 0 0 0 0 0 0 0 0 0 0 0 0 0 0 0 0 0 0 0 0 0 0 0 0 0 0 0 0 0 0 0 0 0 0 0
0 0 0 0 0 0 0 0 0 0 0 0 0 0 0 0 0 0 0 0 0 0 0 0 0 0 0 0 0 0 0 0 0 0 0 0 0 0 0 0 0 0 0 0
0 0 0 0 0 0 0 0 0 0 0 0 0 0 0 0 0 0 0 0 0 0 0 0 0 0 0 0 0 0 0 0 0 0 0 0 0 0 0 0 0 0 0 0
0 0 0 0 0 0 0 0 0 0 0 0 0 0 0 0 0 0 0 0 0 0 0 0 0 0 0 0 0 0 0 0 0 0 0 0 0 0 0 0 0 0 0 0
0 0 0 0 0 0 0 0 0 0 0 0 0 0 0 0 0 0 0 0 0 0 0 0 0 0 0 0 0 0 0 0 0 0 0 0 0 0 0 0 0 0 0 0
0 0 0 0 0 0 0 0 0 0 0 0 0 0 0 0 0 0 0 0 0 0 0 0 0 0 0 0 0 0 0 0 0 0 0 0 0 0 0 0 0 0 0 0
0 0 0 0 0 0 0 0 0 0 0 0 0 0 0 0 0 0 0 0 0 0 0 0 0 0 0 0 0 0 0 0 0 0 0 0 0 0 0 0 0 0 0 0
0 0 0 0 0 0 0 0 0 0 0 0 0 0 0 0 0 0 0 0 0 0 0 0 0 0 0 0 0 0 0 0 0 0 0 0 0 0 0 0 0 0 0 0
0 0 0 0 0 0 0 0 0 0 0 0 0 0 0 0 0 0 0 0 0 0 0 0 0 0 0 0 0 0 0 0 0 0 0 0 0 0 0 0 0 0 0 0
0 0 0 0 0 0 0 0 0 0 0 0 0 0 0 0 0 0 0 0 0 0 0 0 0 0 0 0 0 0 0 0 0 0 0 0 0 0 0 0 0 0 0 0
0 0 0 0 0 0 0 0 0 0 0 0 0 0 0 0 0 0 0 0 0 0 0 -0 0 0 0 0 0 0 0 0 0 0 0 0 0 0 0 0 0 0 0 0
0 0 0 0 0 0 0 0 0 0 0 0 0 0 0 0 0 0 0 0 0 0 0 0 0 0 0 0 0 0 0 0 0 0 0 0 0 0 0 0 0 0 0 0
0 0 0 0 0 0 0 0 0 0 0 0 0 0 0 0 0 0 0 0 0 0 0 0 0 0 0 0 0 0 0 0 0 0 0 0 0 0 0 0 0 0 0 0
0 0 0 0 0 0 0 0 0 0 0 0 0 0 0 0 0 0 0 0 0 0 0 0 0 0 0 0 0 0 0 0 0 0 0 0 0 0 0 0 0 0 0 0
0 0 0 0 0 0 0 0 0 0 0 0 0 0 0 0 0 0 0 0 0 0 0 0 0 0 0 0 0 0 0 0 0 0 0 0 0 0 0 0 0 0 0 0
0 0 0 0 0 0 0 0 0 0 0 0 0 0 0 0 0 0 0 0 0 0 0 0 0 0 0 0 0 0 0 0 0 0 0 0 0 0 0 0 0 0 0 0
0 0 0 0 0 0 0 0 0 0 0 0 0 0 0 0 0 0 0 0 0 0 0 0 0 0 0 0 0 0 0 0 0 0 0 0 0 0 0 0 0 0 0 0
0 0 0 0 0 0 0 0 0 0 0 0 0 0 0 0 0 0 0 0 0 0 0 0 0 0 0 0 0 0 0 0 0 0 0 0 0 0 0 0 0 0 0 0
0 0 0 0 0 0 0 0 0 0 0 0 0 0 0 0 0 0 0 0 0 0 0 0 0 0 0 0 0 0 0 0 0 0 0 0 0 0 0 0 0 0 0 0
0 0 0 0 0 0 0 0 0 0 0 0 0 0 0 0 0 0 0 0 0 0 0 0 0 0 0 0 0 0 0 0 0 0 0 0 0 0 0 0 0 0 0 0
Wind_Speed_500mb
6 7 9 9 17 19 18 26 16 14 21 35 33 18 10 8 16 17 10 5 7 11 14 17 20 22 25 28 32 35 36 39 41 42 44 48 51 53 54 55 56 58 61 61
4 6 6 7 11 16 12 7 4 6 11 10 14 17 15 20 20 14 7 7 9 11 14 19 24 28 31 36 39 42 44 47 50 53 54 56 59 62 65 68 66 64 63 66
7 7 7 9 22 17 11 8 16 21 15 16 9 14 16 21 20 17 12 7 9 13 17 22 29 34 38 43 49 53 57 59 63 66 69 72 74 77 81 81 79 77 72 68
6 10 13 8 7 13 17 12 17 7 11 18 20 16 13 15 16 14 10 5 6 13 19 27 37 45 49 53 59 63 67 69 72 76 78 79 81 83 85 89 89 86 83 77
9 5 7 7 9 14 16 18 26 18 14 23 26 24 17 19 15 9 4 7 13 21 30 36 44 50 55 56 59 62 67 69 70 72 76 79 82 84 86 90 91 91 89 85
7 10 15 9 6 17 11 8 9 37 25 27 32 8 8 23 7 1 7 15 21 28 31 36 40 46 50 53 55 58 61 64 67 71 75 79 82 85 86 86 88 86 84 81
7 5 12 11 12 17 13 12 15 27 41 44 11 10 25 21 5 10 16 21 27 31 36 40 45 50 51 53 53 56 59 61 64 67 73 77 82 85 89 89 88 84 78 71
6 5 14 21 9 19 10 14 29 38 34 30 25 26 17 9 8 14 21 27 34 41 44 45 48 55 57 57 58 62 65 67 67 71 76 80 85 86 85 83 81 78 75 70
14 10 2 23 6 14 23 40 32 32 27 23 20 12 7 11 19 25 31 38 44 49 53 51 49 53 59 59 63 67 67 68 71 75 77 78 83 85 83 77 75 76 73 71
8 5 3 14 18 23 33 34 33 27 17 9 6 10 18 26 32 37 42 45 44 48 54 59 54 56 60 64 68 73 76 75 74 78 80 79 78 79 79 76 75 71 67 59
3 3 15 17 33 40 37 32 25 17 10 10 18 26 33 38 43 45 44 44 49 56 63 69 70 73 73 74 77 81 85 85 83 84 84 82 74 71 70 67 63 59 49 41
9 35 16 40 50 40 32 25 18 13 15 23 30 35 41 46 49 49 51 56 62 65 70 75 80 85 88 85 82 83 88 87 86 86 86 83 76 71 55 54 41 35 27 23
15 43 23 27 53 45 42 32 27 28 35 35 34 39 44 48 50 56 62 67 72 77 82 87 89 90 86 82 83 83 84 85 85 83 82 81 70 56 51 39 30 18 7 5
24 41 25 47 43 53 41 27 28 30 32 35 38 39 44 52 58 63 68 72 75 81 86 88 90 90 83 81 83 84 82 82 83 81 76 71 60 47 38 35 31 19 17 19
37 40 36 36 38 32 33 33 36 38 38 38 40 45 52 60 65 68 70 72 75 79 81 81 83 84 79 79 80 80 80 79 77 75 71 61 52 42 41 42 36 30 24 24
44 46 41 40 42 43 39 42 43 41 41 43 47 52 54 59 66 69 72 76 80 88 89 90 92 90 86 82 80 77 75 74 71 70 64 56 48 45 50 54 46 41 35 33
54 52 56 58 55 52 51 46 45 43 44 48 50 52 56 61 69 74 77 80 86 92 94 92 92 88 84 81 77 75 73 71 65 62 57 54 50 49 55 56 50 45 39 37
48 52 57 58 61 54 48 44 44 46 47 48 50 54 59 66 74 80 84 90 95 98 93 88 84 83 79 73 70 69 67 65 60 56 51 48 48 48 56 55 52 46 41 33
54 54 55 49 42 40 40 42 43 42 42 46 50 56 62 69 76 83 85 88 89 93 88 82 76 74 70 64 60 59 56 54 52 49 45 42 46 48 55 55 53 47 38 33
65 63 58 53 48 45 44 41 38 37 39 45 53 60 66 68 70 74 75 75 68 71 73 71 68 63 58 53 47 47 46 44 42 39 35 38 42 49 54 53 52 48 43 38
68 61 55 51 47 43 38 35 34 35 40 48 56 61 64 63 61 61 62 64 53 53 53 53 52 52 48 45 39 36 35 34 32 30 32 37 42 52 53 52 50 45 38 34
64 59 53 45 39 35 31 28 28 33 38 43 48 51 52 48 47 42 41 49 48 45 45 45 46 46 44 38 33 29 26 25 24 25 30 33 41 49 49 49 45 39 34 31
53 47 41 35 30 26 20 21 24 28 32 35 35 36 37 38 39 39 35 33 36 38 38 39 41 41 36 31 27 22 17 14 14 16 22 29 36 38 40 39 35 29 25 21
46 40 33 26 21 16 14 16 20 22 24 25 28 29 28 25 24 29 32 34 35 34 34 36 31 30 28 24 18 12 5 3 10 16 22 28 31 33 32 26 24 23 23 27
35 31 25 17 12 9 11 13 15 18 19 20 21 22 23 24 23 23 23 26 27 28 29 28 26 24 22 18 14 8 2 4 10 14 18 20 21 20 21 22 20 19 25 27
25 21 16 11 7 6 6 9 13 14 14 14 14 15 16 18 19 20 20 22 24 25 26 25 24 23 20 18 16 13 10 6 5 7 10 13 15 15 14 17 23 27 30 33
20 16 13 9 4 3 6 8 9 10 10 9 8 10 11 13 17 18 19 22 24 24 25 25 24 23 22 22 21 20 19 18 16 14 13 14 15 19 24 29 32 35 38 38
Wind_Direction_500mb
32 121 127 157 171 177 191 207 189 191 179 200 207 182 165 137 152 147 132 77 25 13 4 356 352 352 353 352 350 347 344 340 338 338 334 332 330 328 325 322 319 315 311 306
95 75 79 159 199 193 197 143 139 157 236 195 153 187 157 155 158 157 138 79 51 29 6 354 349 344 344 344 344 343 342 338 336 334 333 329 327 326 324 323 321 320 317 311
201 121 105 308 210 180 181 181 166 213 211 156 161 161 153 149 150 139 122 80 37 18 5 357 350 344 342 339 336 334 332 329 326 324 322 320 319 318 317 317 316 317 317 315
138 125 204 259 48 175 197 183 210 117 140 152 154 153 174 159 143 122 115 84 359 339 334 334 330 328 328 328 327 326 324 323 322 319 316 315 313 312 312 312 312 312 312 312
157 195 314 234 195 150 168 245 208 205 140 149 145 141 146 144 136 121 77 356 334 329 327 323 321 320 321 322 322 322 320 321 320 320 319 318 317 314 313 311 311 311 311 311
155 171 199 223 197 161 119 282 170 178 168 155 150 156 222 170 159 171 327 322 318 316 320 322 321 321 323 323 323 319 317 315 314 314 313 312 312 313 312 311 308 308 307 308
164 192 286 231 164 147 114 233 157 162 156 157 156 169 147 175 239 295 308 313 314 316 319 321 320 318 318 317 318 314 312 311 311 311 309 309 309 309 309 309 308 306 304 306
118 110 269 165 120 160 175 129 136 141 148 150 145 152 167 211 266 296 304 308 308 308 308 312 313 312 312 314 311 309 309 309 310 309 308 308 307 308 308 309 307 306 304 304
179 197 250 165 114 155 154 148 149 149 145 148 156 176 238 288 302 307 306 305 307 305 305 308 311 309 310 313 310 309 309 310 310 309 309 308 307 306 306 306 306 306 305 305
95 297 139 151 126 144 152 154 147 145 149 174 242 287 299 304 305 305 305 305 302 299 301 304 306 304 309 312 310 309 308 307 307 306 307 306 305 305 305 304 305 304 303 301
290 325 118 168 160 148 147 154 161 179 215 270 288 295 298 300 303 304 302 299 300 303 304 304 304 305 309 310 308 306 303 303 302 302 304 305 303 304 304 303 302 302 301 293
212 173 160 182 174 174 177 183 198 231 266 281 288 292 295 297 299 299 299 300 301 302 302 302 303 304 304 306 304 301 299 301 301 300 300 302 304 303 303 300 299 295 294 283
161 172 179 183 195 201 208 221 256 279 286 282 280 285 289 292 295 297 299 300 300 299 299 299 300 300 303 304 301 299 298 298 298 296 297 300 303 299 298 289 282 275 273 220
207 174 155 171 191 203 226 245 254 251 258 265 271 278 285 290 292 293 296 298 301 302 303 304 304 304 305 301 298 297 296 294 291 293 294 295 293 288 275 267 261 235 188 163
204 208 227 220 219 231 232 244 252 251 256 263 271 279 284 288 292 294 297 300 300 302 306 308 308 307 307 304 301 297 293 291 289 289 289 290 281 270 247 236 237 224 200 183
201 212 224 231 232 225 238 254 249 248 255 264 274 281 285 289 293 297 301 303 303 303 307 308 307 308 306 305 303 299 293 289 286 286 287 282 266 255 241 235 234 222 208 195
208 215 221 226 232 239 252 247 249 253 261 273 281 286 292 296 299 301 301 302 302 303 304 306 306 304 303 303 301 297 292 289 287 282 280 272 260 253 241 234 229 220 214 198
226 237 239 247 248 246 240 245 250 261 274 281 286 293 299 302 303 303 303 302 301 301 304 306 304 302 302 300 297 293 289 286 284 281 276 263 258 256 240 230 221 215 204 190
216 222 229 232 233 231 234 248 260 270 276 284 294 299 302 304 305 304 304 303 304 304 306 304 305 304 304 301 296 291 289 286 282 278 269 255 255 253 231 222 214 206 197 189
213 214 219 226 231 240 251 257 265 274 286 297 302 305 304 306 306 305 305 305 311 307 308 309 309 308 305 302 296 291 287 284 280 273 261 252 247 240 221 211 204 199 194 196
210 214 221 228 238 245 250 257 269 286 299 303 305 306 307 310 310 310 309 309 316 313 315 316 315 313 311 309 303 296 290 286 280 272 259 245 233 218 208 201 200 198 195 195
211 216 221 225 230 237 247 266 287 297 302 304 304 305 308 311 312 313 316 316 324 326 327 328 326 326 324 319 312 306 300 293 283 266 247 232 217 206 201 198 196 194 193 199
204 207 209 210 217 234 255 277 291 298 299 302 306 309 312 315 317 322 325 325 329 331 333 333 335 335 335 334 329 322 311 290 263 232 214 205 199 196 194 192 192 193 199 215
190 191 196 202 212 231 258 280 288 298 306 312 314 315 315 316 315 319 328 330 330 330 331 334 339 339 342 344 345 345 337 189 175 174 177 178 178 178 179 182 193 207 225 240
176 180 185 191 200 229 262 282 297 305 309 314 317 318 319 321 318 320 323 325 326 329 329 331 334 335 338 341 341 345 360 145 153 158 165 169 173 180 197 215 228 242 250 257
164 167 164 175 204 238 265 282 286 293 297 301 310 314 316 316 316 319 326 326 326 325 325 326 328 327 329 327 322 316 306 285 244 218 211 214 218 225 238 252 256 261 267 272
160 161 159 160 179 247 285 289 292 296 295 299 301 311 310 315 315 319 324 321 318 318 319 319 321 321 320 316 311 305 299 290 277 264 262 267 272 272 271 271 273 275 276 276
Wind_Speed_850mb
6 7 9 9 17 19 18 26 16 14 21 35 33 18 10 8 16 17 10 5 7 11 14 17 20 22 25 28 32 35 36 39 41 42 44 48 51 53 54 55 56 58 61 61
4 6 6 7 11 16 12 7 4 6 11 10 14 17 15 20 20 14 7 7 9 11 14 19 24 28 31 36 39 42 44 47 50 53 54 56 59 62 65 68 66 64 63 66
7 7 7 9 22 17 11 8 16 21 15 16 9 14 16 21 20 17 12 7 9 13 17 22 29 34 38 43 49 53 57 59 63 66 69 72 74 77 81 81 79 77 72 68
6 10 13 8 7 13 17 12 17 7 11 18 20 16 13 15 16 14 10 5 6 13 19 27 37 45 49 53 59 63 67 69 72 76 78 79 81 83 85 89 89 86 83 77
9 5 7 7 9 14 16 18 26 18 14 23 26 24 17 19 15 9 4 7 13 21 30 36 44 50 55 56 59 62 67 69 70 72 76 79 82 84 86 90 91 91 89 85
7 10 15 9 6 17 11 8 9 37 25 27 32 8 8 23 7 1 7 15 21 28 31 36 40 46 50 53 55 58 61 64 67 71 75 79 82 85 86 86 88 86 84 81
7 5 12 11 12 17 13 12 15 27 41 44 11 10 25 21 5 10 16 21 27 31 36 40 45 50 51 53 53 56 59 61 64 67 73 77 82 85 89 89 88 84 78 71
6 5 14 21 9 19 10 14 29 38 34 30 25 26 17 9 8 14 21 27 34 41 44 45 48 55 57 57 58 62 65 67 67 71 76 80 85 86 85 83 81 78 75 70
14 10 2 23 6 14 23 40 32 32 27 23 20 12 7 11 19 25 31 38 44 49 53 51 49 53 59 59 63 67 67 68 71 75 77 78 83 85 83 77 75 76 73 71
8 5 3 14 18 23 33 34 33 27 17 9 6 10 18 26 32 37 42 45 44 48 54 59 54 56 60 64 68 73 76 75 74 78 80 79 78 79 79 76 75 71 67 59
3 3 15 17 33 40 37 32 25 17 10 10 18 26 33 38 43 45 44 44 49 56 63 69 70 73 73 74 77 81 85 85 83 84 84 82 74 71 70 67 63 59 49 41
9 35 16 40 50 40 32 25 18 13 15 23 30 35 41 46 49 49 51 56 62 65 70 75 80 85 88 85 82 83 88 87 86 86 86 83 76 71 55 54 41 35 27 23
15 43 23 27 53 45 42 32 27 28 35 35 34 39 44 48 50 56 62 67 72 77 82 87 89 90 86 82 83 83 84 85 85 83 82 81 70 56 51 39 30 18 7 5
24 41 25 47 43 53 41 27 28 30 32 35 38 39 44 52 58 63 68 72 75 81 86 88 90 90 83 81 83 84 82 82 83 81 76 71 60 47 38 35 31 19 17 19
37 40 36 36 38 32 33 33 36 38 38 38 40 45 52 60 65 68 70 72 75 79 81 81 83 84 79 79 80 80 80 79 77 75 71 61 52 42 41 42 36 30 24 24
44 46 41 40 42 43 39 42 43 41 41 43 47 52 54 59 66 69 72 76 80 88 89 90 92 90 86 82 80 77 75 74 71 70 64 56 48 45 50 54 46 41 35 33
54 52 56 58 55 52 51 46 45 43 44 48 50 52 56 61 69 74 77 80 86 92 94 92 92 88 84 81 77 75 73 71 65 62 57 54 50 49 55 56 50 45 39 37
48 52 57 58 61 54 48 44 44 46 47 48 50 54 59 66 74 80 84 90 95 98 93 88 84 83 79 73 70 69 67 65 60 56 51 48 48 48 56 55 52 46 41 33
54 54 55 49 42 40 40 42 43 42 42 46 50 56 62 69 76 83 85 88 89 93 88 82 76 74 70 64 60 59 56 54 52 49 45 42 46 48 55 55 53 47 38 33
65 63 58 53 48 45 44 41 38 37 39 45 53 60 66 68 70 74 75 75 68 71 73 71 68 63 58 53 47 47 46 44 42 39 35 38 42 49 54 53 52 48 43 38
68 61 55 51 47 43 38 35 34 35 40 48 56 61 64 63 61 61 62 64 53 53 53 53 52 52 48 45 39 36 35 34 32 30 32 37 42 52 53 52 50 45 38 34
64 59 53 45 39 35 31 28 28 33 38 43 48 51 52 48 47 42 41 49 48 45 45 45 46 46 44 38 33 29 26 25 24 25 30 33 41 49 49 49 45 39 34 31
53 47 41 35 30 26 20 21 24 28 32 35 35 36 37 38 39 39 35 33 36 38 38 39 41 41 36 31 27 22 17 14 14 16 22 29 36 38 40 39 35 29 25 21
46 40 33 26 21 16 14 16 20 22 24 25 28 29 28 25 24 29 32 34 35 34 34 36 31 30 28 24 18 12 5 3 10 16 22 28 31 33 32 26 24 23 23 27
35 31 25 17 12 9 11 13 15 18 19 20 21 22 23 24 23 23 23 26 27 28 29 28 26 24 22 18 14 8 2 4 10 14 18 20 21 20 21 22 20 19 25 27
25 21 16 11 7 6 6 9 13 14 14 14 14 15 16 18 19 20 20 22 24 25 26 25 24 23 20 18 16 13 10 6 5 7 10 13 15 15 14 17 23 27 30 33
20 16 13 9 4 3 6 8 9 10 10 9 8 10 11 13 17 18 19 22 24 24 25 25 24 23 22 22 21 20 19 18 16 14 13 14 15 19 24 29 32 35 38 38
Wind_Direction_850mb
32 121 127 157 171 177 191 207 189 191 179 200 207 182 165 137 152 147 132 77 25 13 4 356 352 352 353 352 350 347 344 340 338 338 334 332 330 328 325 322 319 315 311 306
95 75 79 159 199 193 197 143 139 157 236 195 153 187 157 155 158 157 138 79 51 29 6 354 349 344 344 344 344 343 342 338 336 334 333 329 327 326 324 323 321 320 317 311
201 121 105 308 210 180 181 181 166 213 211 156 161 161 153 149 150 139 122 80 37 18 5 357 350 344 342 339 336 334 332 329 326 324 322 320 319 318 317 317 316 317 317 315
138 125 204 259 48 175 197 183 210 117 140 152 154 153 174 159 143 122 115 84 359 339 334 334 330 328 328 328 327 326 324 323 322 319 316 315 313 312 312 312 312 312 312 312
157 195 314 234 195 150 168 245 208 205 140 149 145 141 146 144 136 121 77 356 334 329 327 323 321 320 321 322 322 322 320 321 320 320 319 318 317 314 313 311 311 311 311 311
155 171 199 223 197 161 119 282 170 178 168 155 150 156 222 170 159 171 327 322 318 316 320 322 321 321 323 323 323 319 317 315 314 314 313 312 312 313 312 311 308 308 307 308
164 192 286 231 164 147 114 233 157 162 156 157 156 169 147 175 239 295 308 313 314 316 319 321 320 318 318 317 318 314 312 311 311 311 309 309 309 309 309 309 308 306 304 306
118 110 269 165 120 160 175 129 136 141 148 150 145 152 167 211 266 296 304 308 308 308 308 312 313 312 312 314 311 309 309 309 310 309 308 308 307 308 308 309 307 306 304 304
179 197 250 165 114 155 154 148 149 149 145 148 156 176 238 288 302 307 306 305 307 305 305 308 311 309 310 313 310 309 309 310 310 309 309 308 307 306 306 306 306 306 305 305
95 297 139 151 126 144 152 154 147 145 149 174 242 287 299 304 305 305 305 305 302 299 301 304 306 304 309 312 310 309 308 307 307 306 307 306 305 305 305 304 305 304 303 301
290 325 118 168 160 148 147 154 161 179 215 270 288 295 298 300 303 304 302 299 300 303 304 304 304 305 309 310 308 306 303 303 302 302 304 305 303 304 304 303 302 302 301 293
212 173 160 182 174 174 177 183 198 231 266 281 288 292 295 297 299 299 299 300 301 302 302 302 303 304 304 306 304 301 299 301 301 300 300 302 304 303 303 300 299 295 294 283
161 172 179 183 195 201 208 221 256 279 286 282 280 285 289 292 295 297 299 300 300 299 299 299 300 300 303 304 301 299 298 298 298 296 297 300 303 299 298 289 282 275 273 220
207 174 155 171 191 203 226 245 254 251 258 265 271 278 285 290 292 293 296 298 301 302 303 304 304 304 305 301 298 297 296 294 291 293 294 295 293 288 275 267 261 235 188 163
204 208 227 220 219 231 232 244 252 251 256 263 271 279 284 288 292 294 297 300 300 302 306 308 308 307 307 304 301 297 293 291 289 289 289 290 281 270 247 236 237 224 200 183
201 212 224 231 232 225 238 254 249 248 255 264 274 281 285 289 293 297 301 303 303 303 307 308 307 308 306 305 303 299 293 289 286 286 287 282 266 255 241 235 234 222 208 195
208 215 221 226 232 239 252 247 249 253 261 273 281 286 292 296 299 301 301 302 302 303 304 306 306 304 303 303 301 297 292 289 287 282 280 272 260 253 241 234 229 220 214 198
226 237 239 247 248 246 240 245 250 261 274 281 286 293 299 302 303 303 303 302 301 301 304 306 304 302 302 300 297 293 289 286 284 281 276 263 258 256 240 230 221 215 204 190
216 222 229 232 233 231 234 248 260 270 276 284 294 299 302 304 305 304 304 303 304 304 306 304 305 304 304 301 296 291 289 286 282 278 269 255 255 253 231 222 214 206 197 189
213 214 219 226 231 240 251 257 265 274 286 297 302 305 304 306 306 305 305 305 311 307 308 309 309 308 305 302 296 291 287 284 280 273 261 252 247 240 221 211 204 199 194 196
210 214 221 228 238 245 250 257 269 286 299 303 305 306 307 310 310 310 309 309 316 313 315 316 315 313 311 309 303 296 290 286 280 272 259 245 233 218 208 201 200 198 195 195
211 216 221 225 230 237 247 266 287 297 302 304 304 305 308 311 312 313 316 316 324 326 327 328 326 326 324 319 312 306 300 293 283 266 247 232 217 206 201 198 196 194 193 199
204 207 209 210 217 234 255 277 291 298 299 302 306 309 312 315 317 322 325 325 329 331 333 333 335 335 335 334 329 322 311 290 263 232 214 205 199 196 194 192 192 193 199 215
190 191 196 202 212 231 258 280 288 298 306 312 314 315 315 316 315 319 328 330 330 330 331 334 339 339 342 344 345 345 337 189 175 174 177 178 178 178 179 182 193 207 225 240
176 180 185 191 200 229 262 282 297 305 309 314 317 318 319 321 318 320 323 325 326 329 329 331 334 335 338 341 341 345 360 145 153 158 165 169 173 180 197 215 228 242 250 257
164 167 164 175 204 238 265 282 286 293 297 301 310 314 316 316 316 319 326 326 326 325 325 326 328 327 329 327 322 316 306 285 244 218 211 214 218 225 238 252 256 261 267 272
160 161 159 160 179 247 285 289 292 296 295 299 301 311 310 315 315 319 324 321 318 318 319 319 321 321 320 316 311 305 299 290 277 264 262 267 272 272 271 271 273 275 276 276